Spokane Fairchild, WA

7:12 PM PDT on July 27, 2017 (GMT -0700)
Fairchild Air Force Base

Weather History for KSKA - January, 2012

Change the Weather History Date:

Tuesday, January 10, 2012

  Actual Average Record
Temperature  
Mean Temperature 29 °F -  
Max Temperature 37 °F 31 °F 48 °F (2006)
Min Temperature 21 °F 21 °F 5 °F (1998)
Degree Days  
Heating Degree Days 36    
Moisture  
Dew Point 26 °F    
Average Humidity 84    
Maximum Humidity 100    
Minimum Humidity 40    
Precipitation  
Precipitation 0.07 in - - ()
Sea Level Pressure  
Sea Level Pressure 30.24 in    
Wind  
Wind Speed 10 mph (West)    
Max Wind Speed 18 mph    
Max Gust Speed 22 mph    
Visibility 7 miles    
Events Rain , Snow    
Averages and records for this station are not official NWS values.
T = Trace of Precipitation, MM = Missing Value Source: NWS Daily Summary

Daily Weather History Graph

Daily Weather History Graph

Search for Another Location

Airport or City:

Trip Planner

Search our weather history database for the weather conditions in past years. The results will help you decide how hot, cold, wet, or windy it might be!

Date:

Astronomy

Jan. 10, 2012 Rise Set
Actual Time 7:37 AM PST 4:19 PM PST
Civil Twilight 7:01 AM PST 4:54 PM PST
Nautical Twilight 6:23 AM PST 5:33 PM PST
Astronomical Twilight 5:46 AM PST 6:10 PM PST
Moon 6:26 PM PST (1/10) 8:09 AM PST (1/10)
Length of Visible Light 9h 52m
Length of Day
8h 42m
Full, 97% of the Moon is Illuminated
Jan 10
Full
Jan 16
Last Quarter
Jan 22
New
Jan 30
First Quarter
Feb 7
Full

Hourly Weather History & Observations

Time (PST) Temp. Windchill Dew Point Humidity Pressure Visibility Wind Dir Wind Speed Gust Speed Precip Events Conditions
12:40 AM 35.6 °F 29.9 °F 35.6 °F 100% 30.07 in 9.0 mi SSW 6.9 mph - N/A Rain Light Rain
12:43 AM 35.6 °F 29.9 °F 35.6 °F 100% 30.07 in 9.0 mi SSW 6.9 mph - N/A Rain Light Rain
12:50 AM 35.6 °F 31.7 °F 35.6 °F 100% 30.07 in 8.0 mi SW 4.6 mph - N/A Rain Light Rain
12:55 AM 35.8 °F 30.9 °F 35.8 °F 100% 30.07 in 8.0 mi SSW 5.8 mph - 0.01 in Rain Light Rain
1:07 AM 35.6 °F 29.9 °F 35.6 °F 100% 30.07 in 9.0 mi SSW 6.9 mph - N/A Rain Light Rain
1:13 AM 35.6 °F 29.2 °F 35.6 °F 100% 30.07 in 8.0 mi SSW 8.1 mph - N/A Rain Rain
1:28 AM 35.6 °F 28.6 °F 35.6 °F 100% 30.07 in 7.0 mi SSW 9.2 mph - N/A Rain Light Rain
1:31 AM 35.6 °F 29.2 °F 35.6 °F 100% 30.07 in 7.0 mi SSW 8.1 mph - N/A Rain Light Rain
1:36 AM 35.6 °F 28.0 °F 35.6 °F 100% 30.07 in 7.0 mi SSW 10.4 mph - N/A Rain Light Rain
1:44 AM 35.6 °F 28.0 °F 35.6 °F 100% 30.08 in 7.0 mi SSW 10.4 mph - N/A Rain Rain
1:45 AM 35.6 °F 28.0 °F 35.6 °F 100% 30.08 in 7.0 mi SW 10.4 mph - N/A Rain Rain
1:51 AM 33.8 °F 25.3 °F 33.8 °F 100% 30.08 in 6.0 mi SSW 11.5 mph - N/A Rain Light Rain
1:55 AM 34.5 °F 26.7 °F 34.5 °F 100% 30.08 in 6.0 mi SSW 10.4 mph - 0.04 in Rain Light Rain
1:57 AM 33.8 °F 25.8 °F 33.8 °F 100% 30.09 in 6.0 mi SSW 10.4 mph - N/A Rain Light Rain
2:06 AM 33.8 °F 24.8 °F 33.8 °F 100% 30.08 in 7.0 mi SSW 12.7 mph - N/A Rain Light Rain
2:17 AM 33.8 °F 24.8 °F 33.8 °F 100% 30.08 in 8.0 mi SSW 12.7 mph - N/A Rain Light Rain
2:20 AM 33.8 °F 23.9 °F 33.8 °F 100% 30.08 in 9.0 mi SSW 15.0 mph - N/A Rain Light Rain
2:48 AM 33.8 °F 25.8 °F 33.8 °F 100% 30.07 in 9.0 mi SSW 10.4 mph - N/A Rain Light Rain
2:53 AM 33.8 °F 25.3 °F 33.8 °F 100% 30.07 in 9.0 mi SSW 11.5 mph - N/A   Light Drizzle
2:55 AM 33.3 °F 24.1 °F 33.3 °F 100% 30.07 in 8.0 mi SSW 12.7 mph - 0.02 in   Light Drizzle
2:58 AM 33.8 °F 23.9 °F 33.8 °F 100% 30.07 in 8.0 mi SSW 15.0 mph - N/A   Mostly Cloudy
3:15 AM 33.8 °F 24.8 °F 33.8 °F 100% 30.08 in 6.0 mi SSW 12.7 mph - N/A   Light Drizzle
3:44 AM 32.0 °F 21.6 °F 32.0 °F 100% 30.10 in 7.0 mi WSW 15.0 mph - N/A   Overcast
3:45 AM 32.0 °F 21.6 °F 32.0 °F 100% 30.10 in 6.0 mi SW 15.0 mph - N/A   Light Drizzle
3:47 AM 32.0 °F 21.2 °F 32.0 °F 100% 30.10 in 6.0 mi SW 16.1 mph - N/A   Overcast
3:54 AM 32.0 °F 22.5 °F 32.0 °F 100% 30.10 in 4.0 mi WSW 12.7 mph - N/A   Overcast
4:14 AM 32.0 °F 23.6 °F 32.0 °F 100% 30.11 in 2.5 mi WSW 10.4 mph - N/A   Overcast
4:28 AM 32.0 °F 22.1 °F 32.0 °F 100% 30.12 in 1.8 mi WSW 13.8 mph - N/A   Overcast
4:34 AM 32.0 °F 23.0 °F 32.0 °F 100% 30.12 in 1.2 mi West 11.5 mph - N/A   Overcast
4:35 AM 32.0 °F 23.6 °F 32.0 °F 100% 30.12 in 1.2 mi West 10.4 mph - N/A   Light Freezing Drizzle
4:53 AM 32.0 °F 22.5 °F 32.0 °F 100% 30.12 in 1.0 mi WSW 12.7 mph - N/A   Mist
4:55 AM 31.5 °F 20.9 °F 31.5 °F 100% 30.12 in 1.0 mi WSW 15.0 mph - 0.00 in   Mist
4:57 AM 32.0 °F 22.1 °F 32.0 °F 100% 30.12 in 1.2 mi WSW 13.8 mph - N/A   Overcast
5:00 AM 32.0 °F 22.1 °F 32.0 °F 100% 30.12 in 1.5 mi WSW 13.8 mph - N/A   Overcast
5:05 AM 32.0 °F 22.5 °F 32.0 °F 100% 30.13 in 2.0 mi WSW 12.7 mph - N/A   Overcast
5:10 AM 32.0 °F 23.0 °F 32.0 °F 100% 30.14 in 2.5 mi WSW 11.5 mph - N/A   Overcast
5:14 AM 32.0 °F 23.0 °F 32.0 °F 100% 30.13 in 3.0 mi WSW 11.5 mph - N/A   Overcast
5:22 AM 32.0 °F 21.6 °F 32.0 °F 100% 30.14 in 5.0 mi WSW 15.0 mph - N/A   Overcast
5:35 AM 32.0 °F 22.1 °F 32.0 °F 100% 30.14 in 7.0 mi West 13.8 mph - N/A   Overcast
5:55 AM 30.6 °F 19.8 °F 30.6 °F 100% 30.16 in 9.0 mi WSW 15.0 mph - 0.00 in   Overcast
6:15 AM 30.2 °F 18.9 °F 30.2 °F 100% 30.17 in 3.0 mi WSW 16.1 mph - N/A   Overcast
6:18 AM 30.2 °F 19.3 °F 30.2 °F 100% 30.17 in 3.0 mi West 15.0 mph - N/A   Overcast
6:27 AM 30.2 °F 19.3 °F 30.2 °F 100% 30.17 in 5.0 mi WSW 15.0 mph - N/A   Overcast
6:34 AM 30.2 °F 19.3 °F 30.2 °F 100% 30.17 in 2.5 mi WSW 15.0 mph - N/A   Overcast
6:38 AM 30.2 °F 19.8 °F 30.2 °F 100% 30.17 in 1.8 mi WSW 13.8 mph - N/A   Overcast
6:55 AM 30.0 °F 20.5 °F 30.0 °F 100% 30.18 in 1.5 mi WSW 11.5 mph - 0.00 in   Overcast
7:06 AM 30.2 °F 21.3 °F 30.2 °F 100% 30.18 in 1.5 mi WSW 10.4 mph - N/A   Light Freezing Drizzle
7:10 AM 30.2 °F 18.9 °F 30.2 °F 100% 30.18 in 1.5 mi West 16.1 mph - N/A   Overcast
7:31 AM 30.2 °F 25.4 °F 30.2 °F 100% 30.19 in 2.0 mi West 4.6 mph - N/A   Overcast
7:55 AM 29.7 °F 20.7 °F 29.7 °F 100% 30.22 in 4.0 mi West 10.4 mph - N/A   Overcast
8:13 AM 30.2 °F 21.3 °F 30.2 °F 100% 30.22 in 2.5 mi West 10.4 mph - N/A   Overcast
8:17 AM 30.2 °F 21.3 °F 30.2 °F 100% 30.23 in 2.0 mi West 10.4 mph - N/A   Overcast
8:30 AM 30.2 °F 21.9 °F 30.2 °F 100% 30.24 in 3.0 mi West 9.2 mph - N/A   Overcast
8:48 AM 30.2 °F 21.9 °F 30.2 °F 100% 30.25 in 1.8 mi West 9.2 mph - N/A   Overcast
9:14 AM 30.2 °F 24.3 °F 30.2 °F 100% 30.27 in 2.0 mi West 5.8 mph - N/A   Overcast
9:23 AM 30.2 °F 23.4 °F 30.2 °F 100% 30.27 in 3.0 mi West 6.9 mph - N/A   Overcast
9:44 AM 30.2 °F 22.6 °F 30.2 °F 100% 30.27 in 5.0 mi West 8.1 mph - N/A   Mostly Cloudy
9:49 AM 32.0 °F 25.6 °F 32.0 °F 100% 30.28 in 5.0 mi WSW 6.9 mph - N/A   Mostly Cloudy
9:53 AM 32.0 °F 25.6 °F 32.0 °F 100% 30.29 in 6.0 mi West 6.9 mph - N/A   Scattered Clouds
9:55 AM 32.0 °F 25.6 °F 32.0 °F 100% 30.29 in 6.0 mi West 6.9 mph - N/A   Scattered Clouds
10:52 AM 33.8 °F 26.4 °F 33.8 °F 100% 30.30 in 10.0 mi West 9.2 mph - N/A   Clear
10:55 AM 34.5 °F 27.9 °F 34.5 °F 100% 30.30 in 10.0 mi West 8.1 mph - 0.00 in   Clear
11:09 AM 35.6 °F 28.6 °F 35.6 °F 100% 30.30 in 10.0 mi WSW 9.2 mph - N/A   Clear
11:55 AM 36.7 °F 29.4 °F 35.2 °F 95% 30.30 in 10.0 mi West 10.4 mph - 0.00 in   Partly Cloudy
12:04 PM 37.4 °F 30.3 °F 32.0 °F 81% 30.30 in 10.0 mi West 10.4 mph - N/A   Partly Cloudy
12:39 PM 37.4 °F 27.8 °F 23.0 °F 56% 30.31 in 10.0 mi WNW 17.3 mph - N/A   Clear
12:40 PM 37.4 °F 28.2 °F 23.0 °F 56% 30.31 in 10.0 mi WNW 16.1 mph - N/A   Light Drizzle
12:55 PM 36.1 °F 26.2 °F 21.4 °F 55% 30.32 in 10.0 mi WNW 17.3 mph - 0.00 in   Light Drizzle
1:04 PM 35.6 °F 25.2 °F 23.0 °F 60% 30.33 in 10.0 mi West 18.4 mph - N/A   Clear
1:35 PM 37.4 °F 28.5 °F 19.4 °F 48% 30.32 in 10.0 mi WNW 15.0 mph - N/A   Clear
1:55 PM 35.8 °F 25.4 °F 15.8 °F 44% 30.33 in 10.0 mi WNW 18.4 mph - 0.00 in   Light Drizzle
2:23 PM 35.6 °F 27.1 °F 15.8 °F 44% 30.35 in 10.0 mi WNW 12.7 mph 20.7 mph N/A   Partly Cloudy
2:55 PM 36.0 °F 26.7 °F 15.1 °F 43% 30.37 in 10.0 mi North 15.0 mph - 0.00 in   Overcast
2:56 PM 35.6 °F 26.6 °F 15.8 °F 44% 30.37 in 10.0 mi NNW 13.8 mph - N/A   Overcast
3:55 PM 31.1 °F 20.9 °F 10.4 °F 42% 30.41 in 10.0 mi NNW 13.8 mph - N/A   Clear
4:24 PM 30.2 °F 20.2 °F 10.4 °F 44% 30.43 in 10.0 mi NW 12.7 mph - N/A   Light Freezing Rain
4:33 PM 30.2 °F 19.8 °F 8.6 °F 40% 30.44 in 10.0 mi NW 13.8 mph - N/A   Clear
4:55 PM 28.4 °F 18.0 °F 8.8 °F 44% 30.45 in 10.0 mi NNW 12.7 mph 21.9 mph 0.00 in   Clear
5:22 PM 26.6 °F 17.5 °F 10.4 °F 51% 30.46 in 10.0 mi NW 9.2 mph - N/A   Clear
5:38 PM 26.6 °F 20.0 °F 8.6 °F 47% 30.48 in 10.0 mi NW 5.8 mph - N/A   Clear
5:55 PM 27.0 °F 15.6 °F 8.6 °F 46% 30.48 in 10.0 mi NW 13.8 mph 19.6 mph 0.00 in   Clear
6:03 PM 26.6 °F 15.2 °F 6.8 °F 43% 30.48 in 10.0 mi NW 13.8 mph - N/A   Light Freezing Rain
6:28 PM 26.6 °F 15.7 °F 6.8 °F 43% 30.48 in 10.0 mi NW 12.7 mph 20.7 mph N/A   Clear
6:35 PM 26.6 °F 16.2 °F 6.8 °F 43% 30.49 in 10.0 mi NW 11.5 mph 18.4 mph N/A   Light Freezing Rain
6:36 PM 26.6 °F 14.7 °F 6.8 °F 43% 30.49 in 10.0 mi NW 15.0 mph 18.4 mph N/A   Clear
6:37 PM 26.6 °F 14.3 °F 6.8 °F 43% 30.49 in 10.0 mi NW 16.1 mph - N/A   Light Freezing Rain
6:47 PM 26.6 °F 17.5 °F 8.6 °F 47% 30.50 in 10.0 mi NW 9.2 mph - N/A   Clear
6:55 PM 26.6 °F 21.2 °F 7.9 °F 45% 30.51 in 10.0 mi NW 4.6 mph - 0.00 in   Clear
7:55 PM 24.8 °F 17.9 °F 8.8 °F 51% 30.52 in 10.0 mi WNW 5.8 mph - N/A   Clear
8:55 PM 23.7 °F 16.6 °F 10.4 °F 57% 30.54 in 10.0 mi WNW 5.8 mph - N/A   Clear
9:55 PM 23.5 °F 14.5 °F 10.0 °F 56% 30.56 in 10.0 mi NW 8.1 mph - N/A   Clear
10:55 PM 22.5 °F 14.1 °F 10.8 °F 61% 30.57 in 10.0 mi NNW 6.9 mph - N/A   Clear
11:35 PM 21.2 °F 12.6 °F 10.4 °F 63% 30.58 in 10.0 mi North 6.9 mph - N/A Snow Light Snow
11:55 PM 21.9 °F 13.4 °F 9.7 °F 59% 30.57 in 10.0 mi NNE 6.9 mph - 0.00 in Snow Light Snow
11:56 PM 21.2 °F 12.6 °F 10.4 °F 63% 30.57 in 10.0 mi NNE 6.9 mph - N/A   Clear